• en France
  • Liste des pays
  • À 7 jours
  • Température de l'eau
  • Carte satellitaire
  • Carte météo
  • Widgets météo
  • user-avatar
    Se connecter

    Météo par heure à Verhniy Ostrov

    Ce jour, 27 Mai, Dimanche

    Heure Température Précipitation Vent Pression Humidité
    00:00 +9°C° 0 mm 1 m/s 759 mmHg 69%
    01:00 +8°C° 0 mm 1 m/s 759 mmHg 71%
    02:00 +8°C° 0 mm 1 m/s 759 mmHg 72%
    03:00 +8°C° 0 mm 1 m/s 759 mmHg 74%
    04:00 +7°C° 0 mm 2 m/s 759 mmHg 73%
    05:00 +8°C° 0 mm 2 m/s 759 mmHg 73%
    06:00 +9°C° 0 mm 2 m/s 759 mmHg 73%
    07:00 +12°C° 0 mm 2 m/s 758 mmHg 67%
    08:00 +13°C° 0 mm 2 m/s 758 mmHg 62%
    09:00 +14°C° 0 mm 3 m/s 758 mmHg 57%
    10:00 +16°C° 0 mm 3 m/s 757 mmHg 54%
    11:00 +17°C° 0 mm 3 m/s 757 mmHg 51%
    12:00 +18°C° 0 mm 4 m/s 757 mmHg 49%
    13:00 +19°C° 0 mm 4 m/s 756 mmHg 50%
    14:00 +19°C° 0 mm 4 m/s 755 mmHg 50%
    15:00 +19°C° 0 mm 5 m/s 755 mmHg 51%
    16:00 +19°C° 0 mm 5 m/s 754 mmHg 55%
    17:00 +19°C° 0 mm 4 m/s 754 mmHg 60%
    18:00 +19°C° 0 mm 4 m/s 753 mmHg 64%
    19:00 +17°C° 0 mm 4 m/s 753 mmHg 69%
    20:00 +15°C° 0 mm 4 m/s 752 mmHg 74%
    21:00 +13°C° 0 mm 4 m/s 752 mmHg 79%
    22:00 +13°C° 0 mm 4 m/s 752 mmHg 79%
    23:00 +13°C° 0 mm 4 m/s 751 mmHg 78%

    Demain, 28 Mai, Lundi

    Heure Température Précipitation Vent Pression Humidité
    00:00 +13°C° 0 mm 5 m/s 751 mmHg 78%
    01:00 +12°C° 0 mm 4 m/s 751 mmHg 80%
    02:00 +12°C° 0 mm 4 m/s 751 mmHg 83%
    03:00 +12°C° 0 mm 4 m/s 751 mmHg 85%
    04:00 +12°C° 0 mm 3 m/s 752 mmHg 86%
    05:00 +12°C° 0 mm 3 m/s 752 mmHg 86%
    06:00 +13°C° 0 mm 3 m/s 752 mmHg 87%
    07:00 +14°C° 0 mm 3 m/s 752 mmHg 78%
    08:00 +15°C° 0 mm 4 m/s 753 mmHg 68%
    09:00 +18°C° 0 mm 4 m/s 753 mmHg 59%
    10:00 +17°C° 0 mm 5 m/s 754 mmHg 56%
    11:00 +17°C° 0 mm 5 m/s 754 mmHg 52%
    12:00 +19°C° 0 mm 6 m/s 754 mmHg 48%
    13:00 +19°C° 0 mm 6 m/s 754 mmHg 47%
    14:00 +17°C° 0 mm 5 m/s 754 mmHg 46%
    15:00 +17°C° 0 mm 5 m/s 755 mmHg 44%
    16:00 +17°C° 0 mm 5 m/s 755 mmHg 47%
    17:00 +17°C° 0 mm 4 m/s 755 mmHg 50%
    18:00 +15°C° 0 mm 4 m/s 755 mmHg 53%
    19:00 +13°C° 0 mm 4 m/s 755 mmHg 57%
    20:00 +12°C° 0 mm 3 m/s 756 mmHg 60%
    21:00 +10°C° 0 mm 3 m/s 756 mmHg 64%
    22:00 +9°C° 0 mm 2 m/s 756 mmHg 64%
    23:00 +8°C° 0 mm 2 m/s 757 mmHg 65%

    Après-demain, 29 Mai, Mardi

    Heure Température Précipitation Vent Pression Humidité
    00:00 +7°C° 0 mm 2 m/s 757 mmHg 66%
    01:00 +7°C° 0 mm 2 m/s 757 mmHg 67%
    02:00 +7°C° 0 mm 2 m/s 757 mmHg 67%
    03:00 +7°C° 0 mm 1 m/s 757 mmHg 68%
    04:00 +8°C° 0 mm 1 m/s 758 mmHg 68%
    05:00 +9°C° 0 mm 1 m/s 758 mmHg 68%
    06:00 +8°C° 0 mm 2 m/s 758 mmHg 68%
    07:00 +10°C° 0 mm 2 m/s 758 mmHg 62%
    08:00 +13°C° 0 mm 2 m/s 757 mmHg 56%
    09:00 +15°C° 0 mm 2 m/s 757 mmHg 51%
    10:00 +16°C° 0 mm 3 m/s 757 mmHg 49%
    11:00 +17°C° 0 mm 3 m/s 757 mmHg 48%
    12:00 +18°C° 0 mm 3 m/s 756 mmHg 47%
    13:00 +19°C° 0 mm 3 m/s 756 mmHg 47%
    14:00 +19°C° 0 mm 4 m/s 755 mmHg 48%
    15:00 +20°C° 0 mm 4 m/s 755 mmHg 49%
    16:00 +19°C° 0 mm 4 m/s 754 mmHg 53%
    17:00 +19°C° 0 mm 3 m/s 754 mmHg 57%
    18:00 +19°C° 0 mm 3 m/s 753 mmHg 61%
    19:00 +17°C° 0 mm 3 m/s 753 mmHg 66%
    20:00 +14°C° 0 mm 3 m/s 753 mmHg 71%
    21:00 +12°C° 0 mm 3 m/s 752 mmHg 77%
    22:00 +12°C° 0 mm 3 m/s 752 mmHg 78%
    23:00 +11°C° 0 mm 3 m/s 752 mmHg 78%

    30 Mai, Mercredi

    Heure Température Précipitation Vent Pression Humidité
    00:00 +11°C° 0 mm 3 m/s 751 mmHg 79%
    01:00 +10°C° 0 mm 3 m/s 751 mmHg 80%
    02:00 +10°C° 0 mm 4 m/s 751 mmHg 80%
    03:00 +10°C° 0 mm 4 m/s 750 mmHg 80%
    04:00 +11°C° 0 mm 4 m/s 750 mmHg 80%
    05:00 +11°C° 0 mm 4 m/s 749 mmHg 79%
    06:00 +12°C° 0 mm 5 m/s 749 mmHg 78%
    07:00 +14°C° 0 mm 5 m/s 748 mmHg 74%
    08:00 +16°C° 0 mm 6 m/s 748 mmHg 70%
    09:00 +19°C° 0 mm 6 m/s 747 mmHg 67%
    10:00 +20°C° 0 mm 6 m/s 747 mmHg 64%
    11:00 +21°C° 0 mm 7 m/s 746 mmHg 61%
    12:00 +23°C° 0 mm 7 m/s 746 mmHg 58%
    13:00 +23°C° 0 mm 7 m/s 745 mmHg 58%
    14:00 +23°C° 0 mm 7 m/s 745 mmHg 58%
    15:00 +24°C° 0 mm 7 m/s 744 mmHg 58%
    16:00 +23°C° 0,1 mm 7 m/s 744 mmHg 62%
    17:00 +23°C° 0,1 mm 6 m/s 743 mmHg 66%
    18:00 +22°C° 0,1 mm 6 m/s 743 mmHg 71%
    19:00 +21°C° 0,1 mm 5 m/s 742 mmHg 74%
    20:00 +20°C° 0,1 mm 5 m/s 742 mmHg 78%
    21:00 +17°C° 0,1 mm 5 m/s 742 mmHg 82%
    22:00 +17°C° 0 mm 5 m/s 741 mmHg 83%
    23:00 +17°C° 0 mm 5 m/s 741 mmHg 84%

    31 Mai, Jeudi

    Heure Température Précipitation Vent Pression Humidité
    00:00 +16°C° 0 mm 5 m/s 740 mmHg 86%
    01:00 +16°C° 0,1 mm 5 m/s 740 mmHg 89%
    02:00 +15°C° 0,1 mm 5 m/s 740 mmHg 91%
    03:00 +15°C° 0,1 mm 4 m/s 740 mmHg 94%
    04:00 +14°C° 0 mm 4 m/s 741 mmHg 90%
    05:00 +13°C° 0 mm 4 m/s 741 mmHg 86%
    06:00 +13°C° 0 mm 4 m/s 741 mmHg 81%
    07:00 +13°C° 0 mm 4 m/s 741 mmHg 75%
    08:00 +14°C° 0 mm 4 m/s 741 mmHg 68%
    09:00 +14°C° 0 mm 4 m/s 742 mmHg 61%
    10:00 +14°C° 0 mm 3 m/s 742 mmHg 60%
    11:00 +16°C° 0 mm 3 m/s 742 mmHg 58%
    12:00 +16°C° 0 mm 3 m/s 742 mmHg 57%
    13:00 +17°C° 0 mm 3 m/s 742 mmHg 54%
    14:00 +18°C° 0 mm 3 m/s 742 mmHg 52%
    15:00 +19°C° 0 mm 3 m/s 742 mmHg 49%
    16:00 +18°C° 0 mm 3 m/s 742 mmHg 53%
    17:00 +18°C° 0 mm 2 m/s 742 mmHg 57%
    18:00 +18°C° 0 mm 2 m/s 742 mmHg 61%
    19:00 +16°C° 0 mm 3 m/s 742 mmHg 63%
    20:00 +14°C° 0 mm 3 m/s 742 mmHg 65%
    21:00 +13°C° 0 mm 3 m/s 742 mmHg 67%
    22:00 +13°C° 0 mm 3 m/s 742 mmHg 67%
    23:00 +12°C° 0 mm 3 m/s 742 mmHg 67%

    1 Juin, Vendredi

    Heure Température Précipitation Vent Pression Humidité
    00:00 +12°C° 0 mm 4 m/s 742 mmHg 67%
    01:00 +11°C° 0 mm 4 m/s 742 mmHg 68%
    02:00 +11°C° 0 mm 4 m/s 742 mmHg 69%
    03:00 +10°C° 0 mm 4 m/s 741 mmHg 70%
    04:00 +10°C° 0,3 mm 4 m/s 741 mmHg 73%
    05:00 +8°C° 0,3 mm 4 m/s 741 mmHg 76%
    06:00 +8°C° 0,3 mm 4 m/s 741 mmHg 79%
    07:00 +10°C° 0,2 mm 4 m/s 741 mmHg 76%
    08:00 +10°C° 0,2 mm 4 m/s 741 mmHg 74%
    09:00 +10°C° 0,2 mm 5 m/s 741 mmHg 71%
    10:00 +12°C° 0,1 mm 5 m/s 741 mmHg 68%
    11:00 +13°C° 0,1 mm 5 m/s 741 mmHg 65%
    12:00 +13°C° 0,1 mm 5 m/s 741 mmHg 62%
    13:00 +13°C° 0,2 mm 6 m/s 741 mmHg 64%
    14:00 +13°C° 0,2 mm 6 m/s 741 mmHg 66%
    15:00 +13°C° 0,2 mm 6 m/s 741 mmHg 68%
    16:00 +13°C° 0,2 mm 6 m/s 741 mmHg 69%
    17:00 +12°C° 0,2 mm 5 m/s 741 mmHg 71%
    18:00 +12°C° 0,2 mm 5 m/s 741 mmHg 72%
    19:00 +10°C° 0,1 mm 5 m/s 741 mmHg 76%
    20:00 +8°C° 0,1 mm 4 m/s 742 mmHg 80%
    21:00 +7°C° 0,1 mm 4 m/s 742 mmHg 84%
    22:00 +7°C° 0 mm 4 m/s 742 mmHg 85%
    23:00 +6°C° 0 mm 4 m/s 742 mmHg 86%
    Voir plus